Zurück zum Katalog

DELTA 1 DEB

AktivPO
NORAD 21444·DEBRIS·🇺🇸 United States

Gestartet Jun 12, 1975 von Vandenberg Space Force Base

Loading…

Nächste Überflüge (nächste 24 Stunden)

TLE

AktuellSource: Space-Track

Epoche: Sep 14, 2026, 00:22 UTC

1 21444U 75052EC  26257.01543492 -.00000264  00000-0 -68903-3 0  9997
2 21444  99.6877 159.6336 0263053 216.5572 277.8740 12.94953674668389

Verfolge DELTA 1 DEB in Echtzeit mit AllMySat

Download on the App Store